This is the latest recevied weather packets stored in our database for station/object WP4PW. If no packets are shown the sender has not sent any weather packets the latest 10 day(s).
| Time | Temp. | Humidity | Pressure | Rain* | Wind** | Luminosity | Snow |
|---|---|---|---|---|---|---|---|
| 1778156395 | 28.89° C | 81% | 1021.5 hPa | 0 mm | - | 345 W/m² | - |
| 1778156090 | 28.89° C | 81% | 1021.4 hPa | 0 mm | - | 487 W/m² | - |
| 1778155787 | 28.33° C | 85% | 1021.3 hPa | 0 mm | - | 395 W/m² | - |
| 1778155483 | 28.89° C | 83% | 1021.3 hPa | 0 mm | - | 159 W/m² | - |
| 1778155181 | 28.33° C | 84% | 1021.4 hPa | 0 mm | - | 142 W/m² | - |
| 1778154876 | 28.89° C | 82% | 1021.2 hPa | 0 mm | - | 362 W/m² | - |
| 1778154572 | 28.89° C | 81% | 1021.1 hPa | 0 mm | - | 346 W/m² | - |
| 1778154269 | 28.33° C | 83% | 1021.2 hPa | 0 mm | - | 137 W/m² | - |
| 1778153966 | 28.33° C | 82% | 1021.2 hPa | 0 mm | - | 93 W/m² | - |
| 1778153663 | 27.78° C | 83% | 1020.8 hPa | 0 mm | - | 215 W/m² | - |
| 1778153360 | 28.33° C | 82% | 1020.7 hPa | 0 mm | - | 197 W/m² | - |
| 1778153058 | 28.33° C | 83% | 1020.6 hPa | 0 mm | - | 179 W/m² | - |
| 1778152755 | 27.78° C | 83% | 1020.7 hPa | 0 mm | - | 164 W/m² | - |
| 1778152452 | 27.78° C | 86% | 1020.6 hPa | 0 mm | - | 119 W/m² | - |
| 1778152148 | 27.78° C | 87% | 1020.6 hPa | 0 mm | - | 173 W/m² | - |
| 1778151844 | 27.78° C | 87% | 1020.6 hPa | 0 mm | - | 157 W/m² | - |
| 1778151541 | 27.22° C | 89% | 1020.7 hPa | 0 mm | - | 139 W/m² | - |
| 1778151238 | 27.22° C | 88% | 1020.6 hPa | 0 mm | - | 75 W/m² | - |
| 1778150935 | 27.22° C | 89% | 1020.6 hPa | 0 mm | - | 65 W/m² | - |
| 1778150631 | 27.22° C | 88% | 1020.4 hPa | 0 mm | - | 76 W/m² | - |
| 1778150327 | 27.22° C | 89% | 1020.7 hPa | 0 mm | - | 64 W/m² | - |
| 1778150024 | 26.67° C | 89% | 1020.7 hPa | 0 mm | - | 56 W/m² | - |
| 1778149721 | 26.67° C | 90% | 1020.7 hPa | 0 mm | - | 53 W/m² | - |
| 1778149418 | 26.67° C | 91% | 1020.6 hPa | 0 mm | - | 36 W/m² | - |
| 1778149114 | 26.67° C | 91% | 1020.5 hPa | 0 mm | - | 26 W/m² | - |
* Rain latest hour (hover to see other rain measurements)
** Current wind speed in m/s (hover to see current wind gust speed)